QPF
0.07 0.06 0.07 0.09 0.08 0.07 0.06 0.04 0.04 0.05 0.04 0.03 0.02 0.02 0.02 0.03 0.03 0.03 0.03 0.04 0.05 0.04 0.05 0.06 0.08 0.09 0.07 0.05 0.05 0.04 0.03 0.05 0.06 0.04 0.03 0.02 0.01 0.01 0.01 0.01 0.01 0.02 0.01
0.07 0.05 0.05 0.06 0.07 0.06 0.04 0.04 0.04 0.04 0.04 0.04 0.04 0.03 0.04 0.04 0.04 0.04 0.05 0.05 0.05 0.04 0.04 0.05 0.05 0.05 0.05 0.05 0.05 0.05 0.04 0.05 0.06 0.05 0.03 0.02 0.01 0.01 0.01 0.01 0.01 0.01 0.01
0.04 0.03 0.03 0.03 0.02 0.03 0.04 0.05 0.04 0.04 0.05 0.05 0.05 0.05 0.04 0.05 0.04 0.04 0.04 0.05 0.05 0.05 0.04 0.04 0.03 0.03 0.03 0.04 0.03 0.04 0.04 0.04 0.04 0.03 0.02 0.02 0.02 0.01 0.01 0.01 0.00 0.00 0.00
0.04 0.03 0.03 0.02 0.02 0.03 0.04 0.05 0.05 0.05 0.05 0.06 0.06 0.05 0.04 0.05 0.06 0.04 0.05 0.05 0.04 0.03 0.03 0.03 0.02 0.02 0.02 0.03 0.03 0.03 0.04 0.04 0.03 0.02 0.01 0.01 0.01 0.01 0.01 0.01 0.01 0.01 0.01
0.03 0.02 0.02 0.02 0.02 0.03 0.04 0.04 0.05 0.06 0.06 0.08 0.07 0.06 0.05 0.06 0.05 0.05 0.05 0.04 0.04 0.03 0.03 0.03 0.02 0.03 0.03 0.03 0.03 0.03 0.02 0.02 0.02 0.02 0.02 0.01 0.01 0.01 0.01 0.01 0.01 0.01 0.01
0.02 0.02 0.02 0.02 0.02 0.02 0.04 0.03 0.04 0.04 0.05 0.10 0.10 0.06 0.06 0.06 0.05 0.04 0.04 0.03 0.04 0.04 0.04 0.05 0.05 0.04 0.04 0.04 0.03 0.03 0.02 0.02 0.02 0.02 0.01 0.01 0.01 0.01 0.01 0.01 0.01 0.01 0.00
0.03 0.03 0.02 0.03 0.03 0.04 0.03 0.03 0.04 0.03 0.03 0.03 0.04 0.05 0.06 0.05 0.04 0.03 0.03 0.02 0.03 0.04 0.06 0.06 0.07 0.06 0.06 0.04 0.04 0.03 0.03 0.02 0.02 0.01 0.01 0.01 0.01 0.01 0.01 0.01 0.01 0.00 0.01
0.05 0.04 0.05 0.04 0.04 0.05 0.03 0.03 0.04 0.03 0.03 0.03 0.04 0.04 0.04 0.03 0.03 0.03 0.02 0.02 0.01 0.02 0.03 0.03 0.03 0.03 0.03 0.04 0.05 0.05 0.04 0.03 0.02 0.02 0.01 0.01 0.01 0.01 0.01 0.01 0.01 0.01 0.00
0.06 0.05 0.06 0.06 0.05 0.05 0.06 0.03 0.04 0.04 0.05 0.04 0.04 0.03 0.02 0.02 0.02 0.02 0.02 0.02 0.02 0.01 0.01 0.01 0.01 0.01 0.02 0.03 0.05 0.05 0.05 0.05 0.04 0.03 0.03 0.03 0.03 0.03 0.02 0.01 0.01 0.01 0.01
0.06 0.05 0.05 0.05 0.04 0.04 0.07 0.08 0.06 0.04 0.04 0.03 0.03 0.02 0.01 0.01 0.02 0.02 0.02 0.02 0.02 0.02 0.02 0.01 0.01 0.01 0.02 0.03 0.03 0.03 0.04 0.04 0.04 0.03 0.03 0.02 0.02 0.02 0.02 0.02 0.02 0.01 0.01
0.07 0.08 0.07 0.05 0.04 0.04 0.05 0.06 0.07 0.07 0.06 0.04 0.04 0.02 0.02 0.03 0.02 0.02 0.02 0.02 0.01 0.01 0.01 0.01 0.01 0.02 0.03 0.03 0.03 0.03 0.03 0.03 0.04 0.04 0.03 0.03 0.03 0.03 0.02 0.02 0.02 0.03 0.02
0.05 0.06 0.06 0.06 0.05 0.05 0.05 0.05 0.05 0.05 0.05 0.04 0.03 0.02 0.03 0.03 0.02 0.03 0.03 0.03 0.03 0.02 0.03 0.03 0.03 0.03 0.03 0.04 0.04 0.03 0.04 0.03 0.03 0.03 0.03 0.02 0.02 0.03 0.04 0.03 0.03 0.02 0.01
0.02 0.02 0.04 0.04 0.04 0.04 0.04 0.04 0.04 0.04 0.03 0.03 0.03 0.03 0.03 0.02 0.03 0.04 0.05 0.05 0.05 0.05 0.04 0.03 0.04 0.04 0.04 0.03 0.05 0.05 0.04 0.02 0.02 0.02 0.02 0.03 0.03 0.04 0.05 0.04 0.03 0.03 0.01
0.01 0.02 0.02 0.03 0.04 0.04 0.03 0.02 0.03 0.03 0.03 0.04 0.04 0.03 0.03 0.02 0.02 0.04 0.07 0.08 0.06 0.06 0.05 0.04 0.04 0.05 0.04 0.04 0.03 0.04 0.05 0.03 0.02 0.02 0.02 0.02 0.02 0.02 0.03 0.02 0.01 0.01 0.01
0.02 0.02 0.03 0.03 0.03 0.03 0.03 0.03 0.03 0.04 0.04 0.05 0.07 0.07 0.05 0.04 0.04 0.04 0.04 0.05 0.04 0.03 0.04 0.03 0.02 0.03 0.04 0.04 0.05 0.04 0.04 0.04 0.03 0.02 0.01 0.01 0.01 0.00 0.01 0.02 0.01 0.01 0.01
0.03 0.02 0.03 0.05 0.04 0.03 0.03 0.04 0.05 0.05 0.05 0.05 0.05 0.04 0.04 0.05 0.05 0.04 0.03 0.03 0.02 0.02 0.02 0.02 0.02 0.03 0.04 0.06 0.06 0.04 0.02 0.02 0.02 0.01 0.01 0.01 0.01 0.00 0.01 0.01 0.01 0.01 0.00
0.03 0.02 0.02 0.03 0.03 0.03 0.03 0.03 0.03 0.03 0.03 0.04 0.03 0.03 0.03 0.04 0.03 0.02 0.02 0.03 0.02 0.02 0.01 0.01 0.04 0.05 0.05 0.07 0.08 0.05 0.02 0.01 0.02 0.02 0.01 0.00 0.00 0.00 0.01 0.01 0.01 0.01 0.01
0.02 0.01 0.02 0.03 0.03 0.04 0.04 0.05 0.04 0.04 0.03 0.03 0.02 0.02 0.02 0.03 0.03 0.03 0.03 0.03 0.02 0.01 0.01 0.01 0.03 0.05 0.07 0.08 0.06 0.04 0.03 0.02 0.02 0.02 0.01 0.01 0.01 0.00 0.00 0.01 0.01 0.01 0.02
0.01 0.01 0.02 0.03 0.04 0.04 0.04 0.04 0.03 0.03 0.03 0.03 0.02 0.02 0.02 0.03 0.03 0.03 0.02 0.01 0.01 0.01 0.01 0.02 0.03 0.04 0.05 0.05 0.05 0.05 0.04 0.03 0.02 0.02 0.01 0.01 0.01 0.00 0.00 0.01 0.01 0.01 0.02
0.02 0.02 0.02 0.03 0.04 0.04 0.03 0.03 0.03 0.03 0.03 0.02 0.02 0.01 0.01 0.02 0.02 0.02 0.02 0.01 0.01 0.01 0.02 0.02 0.02 0.03 0.03 0.03 0.03 0.04 0.04 0.03 0.02 0.02 0.01 0.01 0.01 0.01 0.01 0.01 0.01 0.01 0.01
0.02 0.02 0.02 0.02 0.03 0.03 0.03 0.03 0.03 0.04 0.03 0.02 0.02 0.01 0.01 0.01 0.01 0.01 0.01 0.01 0.01 0.01 0.01 0.02 0.02 0.03 0.03 0.03 0.03 0.03 0.04 0.03 0.03 0.02 0.02 0.01 0.01 0.01 0.01 0.01 0.01 0.01 0.02
0.02 0.02 0.02 0.02 0.02 0.03 0.03 0.04 0.04 0.04 0.04 0.03 0.02 0.02 0.01 0.01 0.01 0.01 0.01 0.01 0.01 0.01 0.01 0.01 0.02 0.02 0.03 0.03 0.04 0.03 0.04 0.04 0.04 0.03 0.02 0.02 0.01 0.01 0.01 0.01 0.01 0.02 0.02
0.02 0.01 0.02 0.02 0.02 0.02 0.03 0.04 0.05 0.06 0.06 0.05 0.04 0.03 0.02 0.01 0.01 0.01 0.01 0.01 0.01 0.01 0.01 0.01 0.01 0.01 0.02 0.03 0.04 0.05 0.05 0.06 0.06 0.05 0.04 0.03 0.02 0.02 0.02 0.01 0.01 0.01 0.02
0.03 0.02 0.02 0.02 0.01 0.02 0.02 0.04 0.05 0.05 0.06 0.07 0.07 0.05 0.04 0.03 0.02 0.02 0.02 0.03 0.03 0.02 0.02 0.02 0.01 0.01 0.01 0.01 0.01 0.02 0.02 0.03 0.04 0.03 0.03 0.02 0.02 0.02 0.02 0.02 0.02 0.02 0.01
0.02 0.02 0.03 0.03 0.02 0.02 0.02 0.02 0.02 0.03 0.04 0.05 0.06 0.06 0.05 0.04 0.04 0.04 0.03 0.03 0.03 0.04 0.03 0.03 0.03 0.03 0.02 0.02 0.01 0.01 0.01 0.01 0.01 0.02 0.02 0.02 0.01 0.01 0.01 0.01 0.02 0.02 0.02
0.02 0.02 0.02 0.02 0.03 0.03 0.03 0.03 0.02 0.02 0.03 0.04 0.04 0.04 0.05 0.04 0.04 0.04 0.03 0.02 0.02 0.02 0.02 0.03 0.03 0.03 0.03 0.03 0.03 0.02 0.02 0.01 0.01 0.01 0.01 0.01 0.01 0.01 0.01 0.02 0.02 0.01 0.01
MSLP
1019.92 1019.46 1018.99 1018.46 1017.83 1017.05 1016.15 1015.15 1014.10 1013.09 1012.16 1011.36 1010.75 1010.29 1009.99 1009.78 1009.63 1009.48 1009.30 1009.06 1008.76 1008.42 1008.06 1007.72 1007.45 1007.28 1007.24 1007.36 1007.63 1008.05 1008.60 1009.25 1009.97 1010.71 1011.46 1012.17 1012.84 1013.46 1014.03 1014.56 1015.08 1015.61 1016.14
1019.74 1019.26 1018.78 1018.23 1017.55 1016.73 1015.76 1014.68 1013.54 1012.40 1011.34 1010.41 1009.66 1009.10 1008.72 1008.48 1008.33 1008.22 1008.11 1007.96 1007.75 1007.49 1007.19 1006.89 1006.63 1006.44 1006.37 1006.45 1006.69 1007.09 1007.65 1008.34 1009.11 1009.93 1010.76 1011.57 1012.32 1013.01 1013.64 1014.21 1014.75 1015.28 1015.81
1019.61 1019.11 1018.60 1018.00 1017.27 1016.38 1015.34 1014.17 1012.93 1011.68 1010.50 1009.46 1008.60 1007.94 1007.49 1007.20 1007.05 1006.97 1006.93 1006.86 1006.74 1006.57 1006.35 1006.10 1005.86 1005.68 1005.59 1005.64 1005.86 1006.24 1006.79 1007.48 1008.28 1009.15 1010.05 1010.92 1011.75 1012.51 1013.19 1013.81 1014.38 1014.92 1015.46
1019.57 1019.03 1018.46 1017.79 1016.98 1016.01 1014.88 1013.63 1012.30 1010.96 1009.69 1008.56 1007.61 1006.88 1006.36 1006.03 1005.86 1005.80 1005.79 1005.79 1005.76 1005.67 1005.52 1005.34 1005.15 1004.98 1004.90 1004.93 1005.12 1005.47 1005.99 1006.66 1007.46 1008.35 1009.27 1010.19 1011.07 1011.88 1012.62 1013.29 1013.90 1014.47 1015.02
1019.61 1019.02 1018.37 1017.60 1016.69 1015.62 1014.41 1013.07 1011.68 1010.28 1008.95 1007.75 1006.74 1005.95 1005.37 1005.00 1004.80 1004.73 1004.73 1004.76 1004.78 1004.75 1004.68 1004.56 1004.42 1004.30 1004.23 1004.26 1004.42 1004.75 1005.23 1005.87 1006.64 1007.51 1008.43 1009.36 1010.27 1011.12 1011.90 1012.61 1013.26 1013.86 1014.44
1019.73 1019.07 1018.32 1017.45 1016.43 1015.26 1013.96 1012.57 1011.12 1009.69 1008.33 1007.10 1006.05 1005.20 1004.56 1004.13 1003.87 1003.75 1003.72 1003.74 1003.78 1003.79 1003.77 1003.71 1003.63 1003.56 1003.53 1003.57 1003.73 1004.03 1004.48 1005.08 1005.81 1006.64 1007.54 1008.46 1009.37 1010.23 1011.04 1011.79 1012.47 1013.11 1013.71
1019.87 1019.15 1018.30 1017.32 1016.20 1014.95 1013.59 1012.16 1010.70 1009.26 1007.90 1006.65 1005.57 1004.66 1003.95 1003.42 1003.06 1002.85 1002.74 1002.71 1002.72 1002.74 1002.74 1002.74 1002.72 1002.71 1002.73 1002.82 1003.00 1003.30 1003.73 1004.29 1004.98 1005.77 1006.63 1007.52 1008.42 1009.29 1010.11 1010.87 1011.58 1012.25 1012.87
1020.01 1019.21 1018.29 1017.23 1016.04 1014.74 1013.35 1011.92 1010.47 1009.06 1007.71 1006.45 1005.33 1004.36 1003.55 1002.90 1002.40 1002.04 1001.80 1001.67 1001.61 1001.59 1001.61 1001.64 1001.68 1001.75 1001.84 1001.99 1002.22 1002.54 1002.98 1003.53 1004.18 1004.94 1005.76 1006.63 1007.50 1008.36 1009.18 1009.95 1010.67 1011.35 1011.98
1020.08 1019.26 1018.29 1017.19 1015.97 1014.66 1013.29 1011.90 1010.50 1009.12 1007.80 1006.54 1005.38 1004.32 1003.38 1002.57 1001.89 1001.35 1000.94 1000.66 1000.49 1000.41 1000.41 1000.46 1000.57 1000.71 1000.89 1001.12 1001.42 1001.79 1002.25 1002.80 1003.45 1004.18 1004.98 1005.82 1006.68 1007.52 1008.34 1009.11 1009.83 1010.50 1011.13
1020.10 1019.27 1018.30 1017.20 1016.01 1014.75 1013.44 1012.12 1010.79 1009.48 1008.19 1006.92 1005.71 1004.55 1003.46 1002.46 1001.58 1000.83 1000.22 999.77 999.47 999.31 999.27 999.34 999.48 999.70 999.96 1000.27 1000.64 1001.07 1001.57 1002.14 1002.80 1003.52 1004.31 1005.13 1005.98 1006.81 1007.62 1008.39 1009.10 1009.77 1010.38
1020.06 1019.26 1018.33 1017.29 1016.18 1015.01 1013.81 1012.59 1011.36 1010.11 1008.86 1007.59 1006.31 1005.04 1003.79 1002.61 1001.52 1000.56 999.76 999.13 998.70 998.44 998.36 998.41 998.58 998.84 999.16 999.54 999.96 1000.44 1000.96 1001.55 1002.21 1002.93 1003.71 1004.53 1005.37 1006.21 1007.02 1007.79 1008.51 1009.16 1009.76
1019.98 1019.24 1018.39 1017.46 1016.46 1015.43 1014.36 1013.27 1012.15 1010.98 1009.76 1008.49 1007.15 1005.78 1004.40 1003.04 1001.77 1000.62 999.64 998.86 998.30 997.96 997.81 997.84 998.01 998.28 998.62 999.01 999.45 999.92 1000.44 1001.01 1001.65 1002.36 1003.12 1003.94 1004.79 1005.64 1006.47 1007.26 1007.99 1008.65 1009.25
1019.88 1019.23 1018.49 1017.69 1016.84 1015.96 1015.04 1014.09 1013.09 1012.01 1010.83 1009.56 1008.19 1006.74 1005.25 1003.77 1002.36 1001.07 999.96 999.07 998.41 997.99 997.78 997.76 997.89 998.12 998.42 998.76 999.14 999.55 1000.01 1000.52 1001.10 1001.76 1002.49 1003.30 1004.15 1005.02 1005.88 1006.71 1007.48 1008.17 1008.79
1019.78 1019.23 1018.61 1017.95 1017.26 1016.54 1015.78 1014.98 1014.09 1013.10 1011.98 1010.73 1009.35 1007.87 1006.33 1004.79 1003.30 1001.94 1000.76 999.80 999.09 998.61 998.34 998.25 998.30 998.43 998.63 998.85 999.09 999.37 999.68 1000.06 1000.53 1001.10 1001.77 1002.54 1003.39 1004.28 1005.18 1006.06 1006.89 1007.64 1008.31
1019.66 1019.21 1018.71 1018.20 1017.66 1017.10 1016.50 1015.82 1015.06 1014.16 1013.12 1011.92 1010.58 1009.12 1007.59 1006.05 1004.57 1003.22 1002.04 1001.08 1000.34 999.82 999.50 999.33 999.26 999.25 999.27 999.31 999.34 999.40 999.51 999.69 999.98 1000.40 1000.97 1001.67 1002.49 1003.40 1004.34 1005.28 1006.18 1007.01 1007.74
1019.51 1019.15 1018.77 1018.39 1017.99 1017.57 1017.10 1016.56 1015.91 1015.12 1014.17 1013.06 1011.80 1010.42 1008.97 1007.52 1006.12 1004.84 1003.73 1002.82 1002.11 1001.58 1001.21 1000.94 1000.74 1000.56 1000.36 1000.15 999.92 999.71 999.54 999.47 999.54 999.77 1000.19 1000.79 1001.55 1002.43 1003.39 1004.38 1005.35 1006.25 1007.07
1019.31 1019.03 1018.75 1018.48 1018.20 1017.90 1017.56 1017.14 1016.61 1015.93 1015.10 1014.11 1012.97 1011.72 1010.41 1009.10 1007.85 1006.71 1005.72 1004.90 1004.25 1003.74 1003.33 1002.98 1002.63 1002.26 1001.84 1001.36 1000.85 1000.34 999.88 999.53 999.34 999.35 999.58 1000.04 1000.71 1001.54 1002.48 1003.48 1004.49 1005.45 1006.33
1019.05 1018.83 1018.63 1018.45 1018.27 1018.08 1017.85 1017.54 1017.12 1016.57 1015.87 1015.03 1014.05 1012.97 1011.85 1010.73 1009.67 1008.70 1007.87 1007.17 1006.60 1006.12 1005.70 1005.27 1004.81 1004.27 1003.63 1002.91 1002.13 1001.34 1000.60 999.98 999.53 999.31 999.34 999.63 1000.16 1000.90 1001.77 1002.74 1003.74 1004.71 1005.61
1018.71 1018.55 1018.42 1018.31 1018.21 1018.11 1017.97 1017.77 1017.47 1017.05 1016.50 1015.81 1015.01 1014.13 1013.22 1012.31 1011.45 1010.68 1010.01 1009.45 1008.98 1008.55 1008.13 1007.66 1007.11 1006.44 1005.64 1004.73 1003.74 1002.73 1001.77 1000.92 1000.24 999.81 999.63 999.74 1000.11 1000.70 1001.46 1002.33 1003.25 1004.16 1005.03
1018.32 1018.21 1018.13 1018.08 1018.05 1018.02 1017.97 1017.86 1017.67 1017.37 1016.97 1016.45 1015.83 1015.15 1014.44 1013.74 1013.09 1012.51 1012.00 1011.58 1011.20 1010.84 1010.44 1009.96 1009.37 1008.64 1007.75 1006.73 1005.62 1004.47 1003.36 1002.35 1001.52 1000.91 1000.56 1000.48 1000.66 1001.07 1001.66 1002.37 1003.15 1003.94 1004.70
1017.89 1017.82 1017.78 1017.78 1017.80 1017.83 1017.85 1017.82 1017.73 1017.56 1017.29 1016.92 1016.48 1015.98 1015.46 1014.95 1014.47 1014.06 1013.70 1013.39 1013.11 1012.81 1012.46 1012.01 1011.43 1010.70 1009.81 1008.78 1007.64 1006.46 1005.31 1004.23 1003.31 1002.58 1002.09 1001.85 1001.85 1002.07 1002.45 1002.96 1003.53 1004.13 1004.72
1017.43 1017.40 1017.39 1017.43 1017.48 1017.56 1017.63 1017.67 1017.67 1017.59 1017.44 1017.21 1016.91 1016.56 1016.20 1015.84 1015.51 1015.22 1014.98 1014.77 1014.57 1014.35 1014.06 1013.67 1013.16 1012.49 1011.68 1010.72 1009.66 1008.55 1007.44 1006.39 1005.46 1004.69 1004.12 1003.75 1003.59 1003.61 1003.77 1004.04 1004.38 1004.75 1005.12
1016.93 1016.94 1016.96 1017.02 1017.11 1017.21 1017.32 1017.41 1017.46 1017.46 1017.39 1017.26 1017.08 1016.85 1016.61 1016.36 1016.14 1015.94 1015.78 1015.65 1015.51 1015.36 1015.14 1014.84 1014.42 1013.88 1013.20 1012.39 1011.49 1010.53 1009.55 1008.61 1007.75 1007.01 1006.41 1005.97 1005.68 1005.52 1005.48 1005.52 1005.62 1005.75 1005.88
1016.38 1016.42 1016.47 1016.55 1016.65 1016.78 1016.90 1017.01 1017.10 1017.14 1017.14 1017.08 1016.97 1016.83 1016.66 1016.50 1016.35 1016.22 1016.11 1016.02 1015.94 1015.84 1015.70 1015.50 1015.20 1014.80 1014.29 1013.67 1012.97 1012.21 1011.43 1010.66 1009.93 1009.27 1008.70 1008.23 1007.86 1007.58 1007.37 1007.22 1007.10 1007.01 1006.92
1015.76 1015.83 1015.91 1016.01 1016.12 1016.24 1016.37 1016.49 1016.59 1016.66 1016.68 1016.67 1016.61 1016.52 1016.41 1016.30 1016.19 1016.10 1016.03 1015.98 1015.93 1015.88 1015.81 1015.69 1015.51 1015.25 1014.92 1014.50 1014.02 1013.48 1012.91 1012.33 1011.77 1011.23 1010.74 1010.29 1009.89 1009.54 1009.22 1008.92 1008.64 1008.38 1008.12
1015.07 1015.18 1015.28 1015.39 1015.51 1015.63 1015.75 1015.86 1015.96 1016.03 1016.07 1016.07 1016.05 1015.99 1015.92 1015.85 1015.77 1015.71 1015.66 1015.63 1015.62 1015.60 1015.58 1015.53 1015.45 1015.32 1015.14 1014.90 1014.62 1014.28 1013.92 1013.53 1013.14 1012.74 1012.35 1011.96 1011.58 1011.21 1010.84 1010.47 1010.09 1009.72 1009.36
Thickness
5740 5738 5736 5733 5730 5728 5724 5721 5719 5717 5715 5714 5712 5710 5708 5706 5704 5702 5700 5699 5697 5696 5695 5694 5693 5692 5691 5691 5690 5688 5686 5684 5680 5679 5678 5679 5678 5678 5678 5678 5677 5676 5676
5737 5735 5732 5729 5726 5724 5721 5719 5716 5714 5712 5710 5708 5707 5705 5703 5701 5699 5697 5696 5694 5692 5691 5690 5689 5689 5688 5687 5686 5684 5683 5681 5678 5675 5675 5674 5674 5674 5674 5673 5672 5672 5671
5734 5731 5728 5725 5722 5720 5718 5715 5713 5711 5709 5707 5705 5703 5701 5699 5698 5696 5694 5692 5690 5689 5688 5687 5686 5685 5684 5683 5682 5681 5679 5678 5676 5673 5671 5670 5669 5669 5668 5668 5667 5666 5666
5729 5726 5723 5721 5719 5716 5714 5712 5709 5707 5705 5703 5701 5699 5698 5696 5694 5692 5690 5689 5687 5686 5685 5684 5683 5682 5681 5680 5679 5677 5676 5674 5671 5669 5667 5666 5664 5663 5662 5661 5661 5660 5660
5723 5721 5719 5717 5715 5712 5710 5708 5706 5703 5701 5699 5697 5696 5695 5693 5691 5689 5687 5686 5684 5683 5682 5681 5680 5680 5679 5678 5677 5675 5673 5670 5668 5665 5663 5662 5660 5658 5657 5656 5655 5654 5653
5718 5716 5715 5713 5711 5708 5706 5704 5701 5699 5697 5695 5693 5692 5691 5690 5688 5686 5684 5682 5680 5679 5677 5676 5676 5675 5675 5674 5673 5672 5671 5668 5665 5663 5660 5659 5657 5655 5653 5652 5649 5648 5648
5713 5712 5711 5709 5706 5704 5702 5699 5697 5694 5692 5690 5689 5688 5686 5685 5684 5682 5680 5678 5676 5674 5673 5672 5671 5671 5670 5670 5669 5668 5667 5666 5664 5662 5659 5657 5655 5653 5650 5648 5645 5644 5643
5707 5706 5705 5703 5701 5699 5696 5694 5692 5689 5687 5686 5685 5684 5683 5682 5680 5678 5675 5673 5671 5669 5668 5667 5666 5666 5666 5665 5664 5663 5661 5660 5659 5658 5657 5655 5653 5650 5648 5645 5642 5640 5638
5700 5699 5698 5698 5696 5693 5691 5689 5687 5685 5683 5682 5681 5680 5679 5678 5676 5674 5672 5669 5667 5665 5664 5662 5662 5661 5660 5660 5659 5657 5656 5655 5654 5653 5651 5650 5648 5646 5643 5640 5636 5635 5633
5694 5693 5693 5693 5691 5688 5687 5685 5683 5681 5679 5677 5675 5675 5674 5672 5671 5670 5668 5666 5662 5660 5659 5657 5657 5656 5655 5654 5653 5651 5649 5648 5647 5646 5644 5643 5642 5640 5637 5635 5632 5630 5628
5688 5687 5687 5686 5685 5683 5681 5680 5678 5676 5673 5671 5670 5669 5668 5667 5666 5664 5663 5660 5658 5655 5654 5653 5652 5651 5649 5648 5647 5646 5644 5643 5641 5639 5638 5636 5635 5633 5631 5629 5627 5625 5623
5682 5681 5680 5679 5679 5679 5676 5674 5672 5670 5667 5665 5664 5662 5662 5661 5660 5659 5657 5655 5653 5651 5649 5648 5647 5645 5643 5641 5640 5639 5638 5636 5635 5632 5631 5629 5628 5627 5625 5623 5621 5619 5618
5674 5674 5673 5672 5671 5671 5669 5667 5665 5663 5661 5659 5658 5656 5656 5655 5654 5653 5651 5650 5648 5646 5644 5643 5641 5639 5637 5635 5633 5632 5631 5629 5627 5625 5624 5622 5622 5621 5619 5617 5616 5614 5612
5666 5666 5665 5664 5663 5662 5661 5660 5659 5657 5655 5653 5652 5651 5650 5649 5648 5647 5645 5644 5642 5640 5638 5636 5634 5632 5630 5628 5627 5625 5623 5621 5619 5618 5617 5616 5615 5614 5613 5611 5609 5608 5606
5658 5658 5657 5657 5656 5653 5653 5652 5652 5651 5650 5649 5648 5647 5645 5643 5643 5641 5639 5638 5636 5634 5631 5629 5628 5625 5624 5621 5619 5617 5615 5614 5612 5611 5610 5609 5608 5607 5606 5605 5603 5601 5599
5651 5650 5650 5649 5648 5646 5645 5644 5645 5644 5644 5643 5642 5641 5640 5639 5637 5635 5633 5632 5629 5627 5625 5624 5621 5619 5617 5615 5612 5610 5609 5608 5606 5605 5604 5603 5602 5601 5599 5598 5596 5594 5592
5643 5643 5643 5642 5640 5639 5639 5638 5637 5637 5637 5636 5635 5634 5633 5632 5631 5629 5627 5625 5622 5620 5619 5617 5615 5612 5610 5608 5606 5604 5603 5601 5600 5599 5598 5597 5596 5594 5593 5591 5590 5588 5586
5637 5637 5636 5634 5634 5633 5632 5631 5630 5630 5630 5630 5629 5627 5627 5625 5624 5622 5620 5618 5616 5613 5612 5610 5608 5606 5603 5601 5599 5598 5597 5596 5594 5593 5592 5591 5589 5588 5586 5585 5583 5581 5580
5630 5630 5629 5628 5627 5626 5626 5625 5624 5624 5623 5623 5623 5622 5620 5618 5616 5614 5612 5612 5611 5608 5606 5603 5601 5599 5597 5594 5593 5591 5590 5590 5589 5588 5586 5585 5584 5582 5581 5579 5577 5575 5573
5625 5624 5623 5622 5621 5620 5619 5618 5618 5617 5617 5617 5616 5615 5613 5611 5609 5607 5605 5604 5603 5601 5599 5597 5594 5592 5590 5588 5587 5585 5584 5583 5582 5582 5581 5580 5578 5577 5575 5573 5571 5570 5568
5619 5618 5617 5617 5616 5614 5613 5613 5612 5611 5610 5610 5609 5608 5606 5605 5603 5601 5599 5597 5596 5595 5592 5590 5588 5585 5583 5582 5580 5579 5578 5577 5576 5575 5574 5573 5573 5571 5570 5568 5567 5565 5563
5613 5611 5611 5610 5610 5609 5608 5607 5606 5605 5604 5603 5602 5600 5598 5597 5596 5594 5592 5591 5589 5587 5585 5583 5581 5579 5577 5576 5574 5573 5572 5571 5570 5569 5568 5567 5566 5565 5564 5563 5562 5560 5558
5607 5606 5605 5604 5602 5601 5600 5600 5599 5597 5596 5595 5594 5593 5591 5589 5588 5587 5585 5584 5582 5580 5578 5576 5575 5573 5571 5570 5569 5568 5566 5565 5564 5563 5562 5561 5560 5559 5558 5557 5556 5555 5554
5600 5600 5598 5597 5595 5594 5593 5592 5591 5590 5589 5587 5586 5585 5583 5582 5581 5580 5578 5577 5575 5573 5572 5570 5569 5567 5566 5564 5563 5562 5561 5560 5558 5557 5557 5556 5555 5554 5552 5551 5551 5550 5549
5593 5592 5591 5590 5588 5587 5586 5584 5583 5582 5581 5580 5579 5578 5576 5575 5573 5572 5571 5570 5569 5567 5566 5565 5563 5562 5560 5559 5557 5556 5555 5555 5553 5552 5551 5550 5549 5548 5547 5546 5545 5544 5543
5585 5584 5583 5582 5580 5579 5578 5577 5576 5575 5573 5573 5572 5571 5570 5568 5567 5566 5565 5564 5562 5561 5560 5559 5558 5556 5554 5553 5552 5551 5550 5549 5548 5546 5545 5544 5544 5543 5542 5540 5539 5538 5537